{"data":{"norad_id":67854,"epoch":"2026-09-19T19:01:50.608704Z","epoch_age_seconds":127620,"freshness":"FRESH","line1":"1 67854U 26034E   26262.79294686  .00017446  00000+0  52604-3 0  9995","line2":"2 67854  53.1613  21.2454 0001524 102.7210 257.3963 15.34413234 33768","mean_motion":15.34413234,"eccentricity":0.0001524,"inclination_deg":53.1613,"raan_deg":21.2454,"arg_perigee_deg":102.721,"mean_anomaly_deg":257.3963,"bstar":0.00052604,"rev_number":3376,"period_min":93.846948663635,"perigee_km":461.62136819476,"apogee_km":463.70644431099,"semimajor_km":6840.8009062529,"source":"CELESTRAK","updated_at":"2026-09-20T09:00:43.674086Z"}}